This demonstration page uses our WeatherBlox Daily Observations layout. Learn more.

Left ArrowRight Arrow

Hourly Observations for March 23, 2019

Temp ( °F °C ) Dew Point ( °F °C ) Humidity (%) Winds ( mph kmh ) Pressure ( in mb ) Visibility ( mi km ) Precip ( " mm )
12:51 am 00:51 Clear 46 7.8 30 -1.1 54 54 NW 5 7 30.01 1016 10 16 N/A
1:51 am 01:51 Clear 44 6.7 31 -0.6 60 60 NW 7 11 30.02 1017 10 16 N/A
2:51 am 02:51 Clear 41 5 31 -0.6 67 67 ESE 6 9 30.01 1016 10 16 N/A
3:51 am 03:51 Clear 40 4.4 30 -1.1 68 68 N N/A 30.03 1017 10 16 N/A
4:51 am 04:51 Clear 38 3.3 30 -1.1 73 73 E 3 6 30.05 1018 10 16 N/A
5:51 am 05:51 Clear 38 3.3 30 -1.1 73 73 SE 5 7 30.06 1018 10 16 N/A
6:51 am 06:51 Sunny 39 3.9 30 -1.1 70 70 SE 5 7 30.09 1019 10 16 N/A
7:51 am 07:51 Sunny 46 7.8 32 undefined 58 58 SSE 3 6 30.09 1019 10 16 N/A
8:51 am 08:51 Sunny 53 11.7 33 0.6 47 47 SE 8 13 30.07 1018 10 16 N/A
9:51 am 09:51 Sunny 57 13.9 32 undefined 39 39 N N/A 30.07 1018 10 16 N/A
10:51 am 10:51 Sunny 60 15.6 31 -0.6 33 33 N N/A 30.07 1018 10 16 N/A
11:51 am 11:51 Sunny 64 17.8 31 -0.6 29 29 WSW 6 9 30.05 1018 10 16 N/A
12:51 pm 12:51 Sunny 66 18.9 27 -2.8 23 23 N N/A 30.01 1016 10 16 N/A
1:51 pm 13:51 Sunny 69 20.6 23 -5 17 17 SW 6 9 29.96 1015 10 16 N/A
2:51 pm 14:51 Sunny 71 21.7 22 -5.6 16 16 VRB 5 7 29.94 1014 10 16 N/A
3:51 pm 15:51 Sunny 73 22.8 22 -5.6 15 15 VRB 6 9 29.92 1013 10 16 N/A
4:51 pm 16:51 Sunny 72 22.2 23 -5 16 16 WNW 7 11 29.92 1013 10 16 N/A
5:51 pm 17:51 Sunny 71 21.7 26 -3.3 19 19 W 10 17 29.93 1014 10 16 N/A
6:51 pm 18:51 Clear 65 18.3 24 -4.4 21 21 NNW 8 13 29.96 1014 10 16 N/A
7:51 pm 19:51 Clear 62 16.7 28 -2.2 28 28 NW 8 13 29.96 1015 10 16 N/A
8:51 pm 20:51 Clear 61 16.1 30 -1.1 31 31 NNW 12 19 29.97 1015 10 16 N/A
9:51 pm 21:51 Clear 58 14.4 30 -1.1 35 35 N N/A 29.98 1015 10 16 N/A
10:51 pm 22:51 Clear 58 14.4 27 -2.8 31 31 NW 7 11 29.98 1015 10 16 N/A
11:51 pm 23:51 Clear 54 12.2 29 -1.7 38 38 WSW 7 11 29.99 1016 10 16 N/A

Powered by AerisWeather